Oxford, MS

6:06 AM CDT on October 22, 2019 (GMT -0500)
University-Oxford

Weather History for KUOX - September, 2019

Change the Weather History Date:

Monday, September 16, 2019

  Actual Average Record
Temperature  
Mean Temperature 82 °F -  
Max Temperature 96 °F 83 °F 99 °F (1954)
Min Temperature 68 °F 61 °F 39 °F (1961)
Cooling Degree Days 17    
Growing Degree Days 32 (Base 50)    
Moisture  
Dew Point 66 °F    
Average Humidity 68    
Maximum Humidity 100    
Minimum Humidity 28    
Precipitation  
Precipitation 0.00 in - - ()
Sea Level Pressure  
Sea Level Pressure 30.08 in    
Wind  
Wind Speed 1 mph ()    
Max Wind Speed 10 mph    
Max Gust Speed 13 mph    
Visibility 9.0 miles    
Events      
Averages and records for this station are not official NWS values.
T = Trace of Precipitation, MM = Missing Value Source: Averaged Metar Reports

Daily Weather History Graph

Daily Weather History Graph

Search for Another Location

Airport or City:

Astronomy

Sep. 16, 2019 Rise Set
Actual Time 6:41 AM CDT 7:03 PM CDT
Civil Twilight 6:16 AM CDT 7:28 PM CDT
Nautical Twilight 5:47 AM CDT 7:58 PM CDT
Astronomical Twilight 5:17 AM CDT 8:28 PM CDT
Moon 8:43 PM CDT (9/16) 8:44 AM CDT (9/16)
Length of Visible Light 13h 12m
Length of Day
12h 21m
Waning Gibbous, 94% of the Moon is Illuminated
Sep 16
Waning Gibbous
Sep 21
Last Quarter
Sep 28
New
Oct 5
First Quarter
Oct 13
Full

Hourly Weather History & Observations

Time (CDT) Temp. Heat Index Dew Point Humidity Pressure Visibility Wind Dir Wind Speed Gust Speed Precip Events Conditions
12:15 AM 71.6 °F - 69.8 °F 94% 30.09 in 10.0 mi Calm Calm - N/A   Clear
12:35 AM 71.6 °F - 69.8 °F 94% 30.09 in 4.0 mi Calm Calm - N/A   Clear
12:55 AM 69.8 °F - 69.8 °F 100% 30.08 in 10.0 mi Calm Calm - N/A   Clear
1:35 AM 69.8 °F - 69.8 °F 100% 30.08 in 8.0 mi Calm Calm - N/A   Clear
1:55 AM 69.8 °F - 69.8 °F 100% 30.08 in 8.0 mi Calm Calm - N/A   Clear
2:15 AM 69.8 °F - 68.0 °F 94% 30.08 in 8.0 mi Calm Calm - N/A   Clear
2:55 AM 69.8 °F - 68.0 °F 94% 30.08 in 9.0 mi Calm Calm - N/A   Clear
3:15 AM 69.8 °F - 68.0 °F 94% 30.08 in 8.0 mi Calm Calm - N/A   Clear
3:35 AM 68.0 °F - 68.0 °F 100% 30.09 in 9.0 mi Calm Calm - N/A   Clear
3:55 AM 69.8 °F - 68.0 °F 94% 30.09 in 8.0 mi Calm Calm - N/A   Clear
4:15 AM 68.0 °F - 68.0 °F 100% 30.09 in 8.0 mi Calm Calm - N/A   Clear
4:35 AM 68.0 °F - 68.0 °F 100% 30.09 in 9.0 mi Calm Calm - N/A   Clear
4:55 AM 68.0 °F - 68.0 °F 100% 30.09 in 7.0 mi Calm Calm - N/A   Clear
5:15 AM 68.0 °F - 68.0 °F 100% 30.09 in 7.0 mi Calm Calm - N/A   Clear
5:35 AM 68.0 °F - 68.0 °F 100% 30.10 in 9.0 mi Calm Calm - N/A   Clear
5:55 AM 68.0 °F - 68.0 °F 100% 30.10 in 7.0 mi Calm Calm - N/A   Clear
6:15 AM 68.0 °F - 68.0 °F 100% 30.11 in 8.0 mi Calm Calm - N/A   Clear
6:35 AM 68.0 °F - 66.2 °F 94% 30.11 in 8.0 mi Calm Calm - N/A   Clear
6:55 AM 68.0 °F - 66.2 °F 94% 30.12 in 6.0 mi Calm Calm - N/A   Clear
7:15 AM 68.0 °F - 68.0 °F 100% 30.12 in 6.0 mi Calm Calm - N/A   Clear
7:35 AM 68.0 °F - 68.0 °F 100% 30.13 in 9.0 mi Calm Calm - N/A   Clear
7:55 AM 69.8 °F - 69.8 °F 100% 30.13 in 8.0 mi Calm Calm - N/A   Clear
8:35 AM 77.0 °F - 69.8 °F 78% 30.13 in 9.0 mi Calm Calm - N/A   Clear
8:55 AM 80.6 °F 83.9 °F 69.8 °F 70% 30.13 in 9.0 mi Calm Calm - N/A   Clear
9:15 AM 82.4 °F 85.4 °F 68.0 °F 62% 30.13 in 9.0 mi Calm Calm - N/A   Clear
9:35 AM 84.2 °F 87.3 °F 68.0 °F 58% 30.13 in 10.0 mi NNE 4.6 mph - N/A   Clear
9:55 AM 86.0 °F 89.4 °F 68.0 °F 55% 30.13 in 9.0 mi ENE 9.2 mph - N/A   Clear
10:15 AM 87.8 °F 91.4 °F 68.0 °F 52% 30.13 in 9.0 mi Variable 5.8 mph - N/A   Clear
10:35 AM 89.6 °F 93.4 °F 68.0 °F 49% 30.13 in 9.0 mi NE 6.9 mph - N/A   Clear
10:55 AM 89.6 °F 92.2 °F 66.2 °F 46% 30.13 in 9.0 mi Variable 4.6 mph - N/A   Clear
11:15 AM 91.4 °F 94.0 °F 66.2 °F 43% 30.12 in 10.0 mi Variable 5.8 mph - N/A   Clear
11:35 AM 91.4 °F 93.2 °F 64.4 °F 41% 30.12 in 10.0 mi ENE 6.9 mph - N/A   Clear
11:55 AM 93.2 °F 94.9 °F 64.4 °F 38% 30.12 in 9.0 mi North 5.8 mph 12.7 mph N/A   Partly Cloudy
12:15 PM 93.2 °F 94.9 °F 64.4 °F 38% 30.11 in 9.0 mi Variable 3.5 mph - N/A   Partly Cloudy
12:35 PM 93.2 °F 94.9 °F 64.4 °F 38% 30.10 in 9.0 mi Variable 3.5 mph - N/A   Clear
12:55 PM 93.2 °F 94.9 °F 64.4 °F 38% 30.10 in 10.0 mi North 5.8 mph - N/A   Clear
1:15 PM 95.0 °F 97.0 °F 64.4 °F 36% 30.09 in 10.0 mi Variable 4.6 mph 12.7 mph N/A   Light Drizzle
1:35 PM 95.0 °F 96.0 °F 62.6 °F 34% 30.08 in 9.0 mi North 10.4 mph - N/A   Scattered Clouds
1:55 PM 95.0 °F 95.2 °F 60.8 °F 32% 30.07 in 9.0 mi Variable 5.8 mph - N/A   Scattered Clouds
2:15 PM 96.8 °F 96.2 °F 59.0 °F 28% 30.06 in 9.0 mi Calm Calm - N/A   Partly Cloudy
2:35 PM 96.8 °F 97.1 °F 60.8 °F 30% 30.05 in 9.0 mi East 8.1 mph - N/A   Clear
2:55 PM 95.0 °F 94.4 °F 59.0 °F 30% 30.05 in 10.0 mi Variable 3.5 mph - N/A   Clear
3:15 PM 95.0 °F 94.4 °F 59.0 °F 30% 30.04 in 9.0 mi Calm Calm - N/A   Partly Cloudy
3:35 PM 95.0 °F 94.4 °F 59.0 °F 30% 30.04 in 9.0 mi ENE 4.6 mph - N/A   Scattered Clouds
3:55 PM 95.0 °F 94.4 °F 59.0 °F 30% 30.04 in 9.0 mi Calm Calm - N/A   Clear
4:15 PM 93.2 °F 93.3 °F 60.8 °F 34% 30.03 in 10.0 mi Calm Calm - N/A   Clear
4:35 PM 95.0 °F 94.4 °F 59.0 °F 30% 30.03 in 10.0 mi Calm Calm - N/A   Partly Cloudy
5:15 PM 95.0 °F 94.4 °F 59.0 °F 30% 30.03 in 10.0 mi Calm Calm - N/A   Clear
5:35 PM 93.2 °F 93.3 °F 60.8 °F 34% 30.02 in 9.0 mi WNW 6.9 mph - N/A   Clear
5:55 PM 93.2 °F 94.1 °F 62.6 °F 36% 30.02 in 10.0 mi NW 6.9 mph - N/A   Partly Cloudy
6:15 PM 91.4 °F 92.1 °F 62.6 °F 38% 30.02 in 10.0 mi West 3.5 mph - N/A   Clear
6:35 PM 87.8 °F 91.4 °F 68.0 °F 52% 30.02 in 10.0 mi Calm Calm - N/A   Clear
6:55 PM 84.2 °F 87.3 °F 68.0 °F 58% 30.02 in 10.0 mi Calm Calm - N/A   Clear
7:15 PM 82.4 °F 86.3 °F 69.8 °F 66% 30.02 in 9.0 mi Calm Calm - N/A   Clear
8:15 PM 77.0 °F - 68.0 °F 74% 30.02 in 10.0 mi Calm Calm - N/A   Clear
8:55 PM 75.2 °F - 69.8 °F 83% 30.03 in 10.0 mi Calm Calm - N/A   Clear
9:15 PM 75.2 °F - 69.8 °F 83% 30.03 in 10.0 mi Calm Calm - N/A   Clear
9:35 PM 75.2 °F - 69.8 °F 83% 30.04 in 10.0 mi Calm Calm - N/A   Clear
9:55 PM 73.4 °F - 69.8 °F 88% 30.04 in 10.0 mi Calm Calm - N/A   Clear
10:15 PM 73.4 °F - 68.0 °F 83% 30.04 in 10.0 mi Calm Calm - N/A   Clear
11:15 PM 71.6 °F - 68.0 °F 88% 30.03 in 10.0 mi Calm Calm - N/A   Clear
11:35 PM 71.6 °F - 68.0 °F 88% 30.03 in 10.0 mi Calm Calm - N/A   Clear
11:55 PM 71.6 °F - 68.0 °F 88% 30.04 in 10.0 mi Calm Calm - N/A   Clear